Regional Weather Roundup
Issued by NWS Sioux Falls, SD

Home | Current Version | Previous Version | Text Only | Print | Product List | Glossary On
Versions: 1 2 3 4 5 6 7 8 9 10 11 12 13 14 15 16 17 18 19 20 21 22 23 24 25 26 27 28 29 30 31 32 33 34 35 36 37 38 39 40 41 42 43 44 45 46 47 48 49 50
000
ASUS43 KFSD 220410
RWRFSD

WEATHER ROUNDUP FOR SE SOUTH DAKOTA/SW MINNESOTA/NW IOWA
NATIONAL WEATHER SERVICE SIOUX FALLS SD
1100 PM CDT SAT APR 21 2018

NOTE: "FAIR" INDICATES FEW OR NO CLOUDS BELOW 12,000 FEET WITH NO
SIGNIFICANT WEATHER AND OR OBSTRUCTIONS TO VISIBILITY.


SDZ038>040-050-052>070-220500-
SOUTHEAST SOUTH DAKOTA

CITY           SKY/WX    TMP DP  RH WIND       PRES   REMARKS
BROOKINGS      CLEAR     36  31  82 CALM      30.31
CHAMBERLAIN    CLOUDY    41  40  96 CALM      30.28R
HURON          CLEAR     40  34  79 SE6       30.28S
MADISON        FAIR      37  37 100 S3        30.30S
MITCHELL       MOCLDY    38  34  85 E7        30.30R
SIOUX FALLS    MOCLDY    42  33  70 E9        30.30S
WINNER         FAIR      40  33  76 S7        30.27R
YANKTON        CLOUDY    46  38  73 E6        30.28S
$$

MNZ071-072-080-081-089-090-097-098-220500-
SOUTHWEST MINNESOTA

CITY           SKY/WX    TMP DP  RH WIND       PRES   REMARKS
FAIRMONT       PTCLDY    38  32  79 E3        30.33F
JACKSON        CLOUDY    36  32  87 E7        30.32F
LUVERNE        CLOUDY    41  32  70 CALM      30.31F
MARSHALL       CLEAR     36  32  85 CALM      30.34R
MONTEVIDEO     CLEAR     39  36  87 S5        30.34R
PIPESTONE      MOCLDY   N/A N/A N/A SE6       30.31S
REDWOOD FALLS  CLEAR     40  35  83 SE6       30.34R
TRACY          CLEAR     41  32  70 S5        30.33R
WINDOM         CLEAR     39  21  48 E3        30.33S
WORTHINGTON    CLOUDY    37  31  78 E5        30.32S
$$

IAZ001>003-012>014-020>022-031-032-NEZ013-014-SDZ071-220500-
NORTHWEST IOWA

CITY           SKY/WX    TMP DP  RH WIND       PRES   REMARKS
CHEROKEE       CLOUDY    42  38  83 E12       30.29S
DENISON        CLOUDY    50  27  40 E10       30.28F
ESTHERVILLE    CLOUDY    35  31  85 E9        30.31F WCI  28
LE MARS        CLOUDY    46  37  71 NE8       30.29S
ORANGE CITY    CLOUDY    45  37  76 NE7       30.29F
SHELDON        CLOUDY    41  36  81 E6        30.29S
SIOUX CITY     CLOUDY    46  37  71 E7        30.28R
SPENCER        CLOUDY    40  33  76 E9        30.30F
STORM LAKE     CLOUDY    41  39  93 E7        30.30R
$$

ABBREVIATIONS USED IN REMARKS
   TC - TEMPERATURE IN CELSIUS
  WCI - WIND CHILL INDEX
   HX - HEAT INDEX
  VSB - VISIBILITY




USA.gov is the U.S. government's official web portal to all federal, state and local government web resources and services.